Flag for Mexico Weather past 2 weeks in Mexicali, Baja California, Mexico

Now
86 °F

Sunny.


Feels Like: 83 °F
Forecast: 58 / 87 °F
Wind: 13 mph from North

Location: Imperial County Airport

Current Time: Apr 27, 2015 at 4:16:25 PM

Latest Report: Apr 27, 2015 at 2:53 PM


Visibility: 10 mi

Pressure: 29.87 "Hg

Humidity: 11%

Dew point: 25 °F

Location of MexicaliLocation

Historic Weather in Mexicali — Graph

°F

Mexicali temperature yesterday

Maximum temperature yesterday: 85 °F (at 3:53 PM)
Minimum temperature yesterday: 56 °F (at 5:53 AM)
Average temperature yesterday: 71 °F

Past Weeks' High & Low Weather Summary

 TemperatureHumidityPressure
High94 °F (Apr 14, 3:53 PM)73% (Apr 14, 6:53 AM)30.07 "Hg (Apr 14, 6:53 AM)
Low46 °F (Apr 16, 5:53 AM)7% (Apr 15, 4:53 PM)29.64 "Hg (Apr 20, 5:53 PM)
Average72 °F33%29.85 "Hg
* Reported Apr 12 2:53 PM — Apr 27 2:53 PM, Mexicali, Weather by CustomWeather, © 2015

Note: Actual official high and low records may vary slightly from our data, if they occured in-between our weather recording intervals... More about our weather records

Advertising

Mexicali weather history for previous 24 hours

 ConditionsComfort  
Time TempWeatherWind HumidityBarometerVisibility
2:53 PM
Mon, Apr 27
86 °FSunny.13 mph11%29.87 "Hg10 mi
1:53 PM85 °FSunny.12 mph12%29.90 "Hg10 mi
12:53 PM83 °FSunny.13 mph12%29.92 "Hg10 mi
11:53 AM82 °FSunny.14 mph12%29.93 "Hg10 mi
10:53 AM81 °FSunny.14 mph13%29.94 "Hg10 mi
9:53 AM78 °FSunny.14 mph13%29.95 "Hg10 mi
8:53 AM77 °FSunny.17 mph16%29.94 "Hg10 mi
7:53 AM74 °FSunny.15 mph18%29.93 "Hg10 mi
6:53 AM69 °FClear.10 mph24%29.90 "Hg10 mi
5:53 AM56 °FClear.5 mph53%29.88 "Hg10 mi
4:53 AM55 °FClear.6 mph62%29.87 "Hg10 mi
3:53 AM54 °FClear.6 mph64%29.86 "Hg10 mi
2:53 AM57 °FClear.3 mph62%29.86 "Hg10 mi
1:53 AM65 °FClear.5 mph44%29.86 "Hg10 mi
12:53 AM66 °FClear.3 mph50%29.86 "Hg10 mi
11:53 PM
Sun, Apr 26
67 °FClear.No wind51%29.86 "Hg10 mi
10:53 PM69 °FClear.7 mph49%29.83 "Hg10 mi
9:53 PM72 °FClear.5 mph43%29.83 "Hg10 mi
8:53 PM76 °FClear.6 mph26%29.81 "Hg10 mi
7:53 PM76 °FSunny.6 mph27%29.78 "Hg10 mi
6:53 PM79 °FSunny.7 mph26%29.76 "Hg10 mi
5:53 PM82 °FSunny.8 mph19%29.76 "Hg10 mi
4:53 PM83 °FSunny.12 mph17%29.77 "Hg10 mi
Weather by CustomWeather, © 2015

See weather overviewHow to use our weather pages